Location: Newark
(41.6478°N, 9.0078°E)
Time: 08:04:16
(UTC+00:00)

NO-84 - Visible Passes

Search period start: 26 January 2020 00:00
Search period end: 05 February 2020 00:00
Orbit: 328 x 501 km, 55.0° (Epoch: 23 January)

Date Brightness Start Highest point End Pass type
(mag) Time Alt. Az. Time Alt. Az. Time Alt. Az.
26 Jan ? 17:38:43 10° WSW 17:38:48 10° SW 17:38:51 10° SW visible
02 Feb ? 05:26:30 10° SSE 05:28:11 13° SE 05:29:52 10° E visible
04 Feb ? 05:22:55 10° SSW 05:26:20 31° SE 05:29:40 10° ENE visible
